Time,TemperatureF,DewpointF,PressureIn,WindDirection,WindDirectionDegrees,WindSpeedMPH,WindSpeedGustMPH,Humidity,HourlyPrecipIn,Conditions,Clouds,dailyrainin,SoftwareType,DateUTC
2013-03-09 00:00:00,62.5,58.3,29.98,SE,129,9.0,16.0,86,0.00,,,0.00,VWS V14.01,2013-03-09 06:00:00,
2013-03-09 00:05:00,62.5,57.9,29.97,SE,140,8.0,16.0,85,0.00,,,0.00,VWS V14.01,2013-03-09 06:05:00,
2013-03-09 00:10:00,62.5,58.3,29.97,SSE,156,9.0,16.0,86,0.00,,,0.00,VWS V14.01,2013-03-09 06:10:00,
2013-03-09 00:15:00,62.5,58.3,29.97,SE,128,6.0,14.0,86,0.00,,,0.00,VWS V14.01,2013-03-09 06:15:00,
2013-03-09 00:20:00,62.6,58.0,29.97,SE,139,6.0,16.0,85,0.00,,,0.00,VWS V14.01,2013-03-09 06:20:00,
2013-03-09 00:25:00,62.6,58.0,29.97,SSE,165,12.0,14.0,85,0.00,,,0.00,VWS V14.01,2013-03-09 06:25:00,
2013-03-09 00:30:00,62.6,58.0,29.96,SE,132,10.0,13.0,85,0.00,,,0.00,VWS V14.01,2013-03-09 06:30:00,
2013-03-09 00:35:00,62.6,58.0,29.96,SE,140,9.0,14.0,85,0.00,,,0.00,VWS V14.01,2013-03-09 06:35:00,
2013-03-09 00:40:00,62.6,58.0,29.96,SE,134,11.0,14.0,85,0.00,,,0.00,VWS V14.01,2013-03-09 06:40:00,
2013-03-09 00:45:00,62.6,58.4,29.96,SE,146,10.0,15.0,86,0.00,,,0.00,VWS V14.01,2013-03-09 06:45:00,
2013-03-09 00:50:00,62.6,58.4,29.97,SE,136,9.0,13.0,86,0.00,,,0.00,VWS V14.01,2013-03-09 06:50:00,
2013-03-09 00:55:00,62.5,58.3,29.96,SSE,158,8.0,15.0,86,0.00,,,0.00,VWS V14.01,2013-03-09 06:55:00,
2013-03-09 01:00:00,62.6,58.4,29.96,SE,144,10.0,16.0,86,0.00,,,0.00,VWS V14.01,2013-03-09 07:00:00,
2013-03-09 01:05:00,62.5,58.3,29.95,SE,136,11.0,12.0,86,0.00,,,0.00,VWS V14.01,2013-03-09 07:05:00,
2013-03-09 01:10:00,62.5,58.3,29.95,SE,135,9.0,13.0,86,0.00,,,0.00,VWS V14.01,2013-03-09 07:10:00,
2013-03-09 01:15:00,62.5,58.3,29.94,SE,139,7.0,16.0,86,0.00,,,0.00,VWS V14.01,2013-03-09 07:15:00,
2013-03-09 01:20:00,62.5,58.3,29.94,SE,146,15.0,17.0,86,0.00,,,0.00,VWS V14.01,2013-03-09 07:20:00,
2013-03-09 01:25:00,62.6,58.4,29.93,SE,142,12.0,16.0,86,0.00,,,0.00,VWS V14.01,2013-03-09 07:25:00,
2013-03-09 01:30:00,62.5,58.3,29.93,SSE,152,10.0,15.0,86,0.00,,,0.00,VWS V14.01,2013-03-09 07:30:00,
2013-03-09 01:35:00,62.5,58.3,29.93,SE,137,11.0,15.0,86,0.00,,,0.00,VWS V14.01,2013-03-09 07:35:00,
2013-03-09 01:40:00,62.4,58.5,29.93,SE,136,11.0,14.0,87,0.00,,,0.00,VWS V14.01,2013-03-09 07:40:00,
2013-03-09 01:45:00,62.4,58.5,29.92,SE,143,11.0,14.0,87,0.00,,,0.00,VWS V14.01,2013-03-09 07:45:00,
2013-03-09 01:50:00,62.3,58.4,29.92,SE,128,9.0,14.0,87,0.00,,,0.00,VWS V14.01,2013-03-09 07:50:00,
2013-03-09 01:55:00,62.2,58.3,29.92,SSE,150,12.0,13.0,87,0.00,,,0.00,VWS V14.01,2013-03-09 07:55:00,
2013-03-09 02:00:00,62.3,58.4,29.92,SE,126,7.0,14.0,87,0.00,,,0.00,VWS V14.01,2013-03-09 08:00:00,
2013-03-09 02:05:00,62.2,58.3,29.92,SE,135,6.0,12.0,87,0.00,,,0.00,VWS V14.01,2013-03-09 08:05:00,
2013-03-09 02:10:00,62.2,58.6,29.92,SE,136,7.0,11.0,88,0.00,,,0.00,VWS V14.01,2013-03-09 08:10:00,
2013-03-09 02:15:00,62.2,58.6,29.91,ESE,115,10.0,10.0,88,0.00,,,0.00,VWS V14.01,2013-03-09 08:15:00,
2013-03-09 02:20:00,62.2,58.6,29.91,SE,139,6.0,13.0,88,0.00,,,0.00,VWS V14.01,2013-03-09 08:20:00,
2013-03-09 02:25:00,62.2,58.6,29.91,SE,142,9.0,13.0,88,0.00,,,0.00,VWS V14.01,2013-03-09 08:25:00,
2013-03-09 02:30:00,62.2,58.6,29.90,SE,129,9.0,14.0,88,0.00,,,0.00,VWS V14.01,2013-03-09 08:30:00,
2013-03-09 02:35:00,62.2,58.6,29.90,ESE,113,7.0,10.0,88,0.00,,,0.00,VWS V14.01,2013-03-09 08:35:00,
2013-03-09 02:40:00,62.3,58.7,29.90,SE,126,6.0,12.0,88,0.00,,,0.00,VWS V14.01,2013-03-09 08:40:00,
2013-03-09 02:45:00,62.3,58.7,29.89,SE,146,5.0,14.0,88,0.00,,,0.00,VWS V14.01,2013-03-09 08:45:00,
2013-03-09 02:50:00,62.4,58.8,29.89,SE,130,6.0,14.0,88,0.00,,,0.00,VWS V14.01,2013-03-09 08:50:00,
2013-03-09 02:55:00,62.4,58.8,29.89,SE,126,7.0,13.0,88,0.00,,,0.00,VWS V14.01,2013-03-09 08:55:00,
2013-03-09 03:00:00,62.5,58.9,29.89,SSE,158,11.0,13.0,88,0.00,,,0.00,VWS V14.01,2013-03-09 09:00:00,
2013-03-09 03:05:00,62.5,58.9,29.88,SE,135,12.0,13.0,88,0.00,,,0.00,VWS V14.01,2013-03-09 09:05:00,
2013-03-09 03:10:00,62.6,59.0,29.88,SSE,149,8.0,13.0,88,0.00,,,0.00,VWS V14.01,2013-03-09 09:10:00,
2013-03-09 03:15:00,62.6,59.0,29.88,SE,142,11.0,16.0,88,0.00,,,0.00,VWS V14.01,2013-03-09 09:15:00,
2013-03-09 03:20:00,62.6,59.0,29.87,SE,139,9.0,16.0,88,0.00,,,0.00,VWS V14.01,2013-03-09 09:20:00,
2013-03-09 03:25:00,62.7,59.1,29.87,SE,129,7.0,13.0,88,0.00,,,0.00,VWS V14.01,2013-03-09 09:25:00,
2013-03-09 03:30:00,62.8,59.2,29.87,SSE,167,9.0,16.0,88,0.00,,,0.00,VWS V14.01,2013-03-09 09:30:00,
2013-03-09 03:35:00,62.9,59.3,29.87,SE,144,8.0,17.0,88,0.00,,,0.00,VWS V14.01,2013-03-09 09:35:00,
2013-03-09 03:39:00,62.9,59.3,29.87,ESE,122,12.0,16.0,88,0.00,,,0.00,VWS V14.01,2013-03-09 09:39:00,
2013-03-09 03:40:00,63.3,59.7,29.85,SSE,156,10.0,20.0,88,0.00,,,0.00,VWS V14.01,2013-03-09 09:40:00,
2013-03-09 03:44:00,63.0,59.4,29.87,SSE,156,13.0,16.0,88,0.00,,,0.00,VWS V14.01,2013-03-09 09:44:00,
2013-03-09 03:45:00,63.4,59.8,29.85,SE,145,15.0,16.0,88,0.00,,,0.00,VWS V14.01,2013-03-09 09:45:00,
2013-03-09 03:49:00,63.1,59.2,29.86,SE,140,9.0,15.0,87,0.00,,,0.00,VWS V14.01,2013-03-09 09:49:00,
2013-03-09 03:50:00,63.4,59.8,29.85,SSE,164,9.0,18.0,88,0.00,,,0.00,VWS V14.01,2013-03-09 09:50:00,
2013-03-09 03:54:00,63.1,59.2,29.86,SE,137,5.0,16.0,87,0.00,,,0.00,VWS V14.01,2013-03-09 09:54:00,
2013-03-09 03:55:00,63.4,59.8,29.85,SSE,160,12.0,15.0,88,0.00,,,0.00,VWS V14.01,2013-03-09 09:55:00,
2013-03-09 03:59:00,63.1,59.2,29.86,SSE,156,10.0,15.0,87,0.00,,,0.00,VWS V14.01,2013-03-09 09:59:00,
2013-03-09 04:00:00,63.4,59.8,29.85,SE,137,11.0,18.0,88,0.00,,,0.00,VWS V14.01,2013-03-09 10:00:00,
2013-03-09 04:04:00,63.1,59.5,29.86,SE,132,14.0,20.0,88,0.00,,,0.00,VWS V14.01,2013-03-09 10:04:00,
2013-03-09 04:05:00,63.4,59.8,29.85,SSE,149,7.0,16.0,88,0.00,,,0.00,VWS V14.01,2013-03-09 10:05:00,
2013-03-09 04:09:00,63.1,59.5,29.86,SSE,151,8.0,15.0,88,0.00,,,0.00,VWS V14.01,2013-03-09 10:09:00,
2013-03-09 04:10:00,63.5,59.9,29.85,SE,136,12.0,15.0,88,0.00,,,0.00,VWS V14.01,2013-03-09 10:10:00,
2013-03-09 04:14:00,63.2,59.3,29.85,SSE,157,9.0,19.0,87,0.00,,,0.00,VWS V14.01,2013-03-09 10:14:00,
2013-03-09 04:15:00,63.6,60.0,29.85,SE,142,7.0,19.0,88,0.00,,,0.00,VWS V14.01,2013-03-09 10:15:00,
2013-03-09 04:19:00,63.2,59.6,29.85,SE,140,14.0,18.0,88,0.00,,,0.00,VWS V14.01,2013-03-09 10:19:00,
2013-03-09 04:20:00,63.6,60.0,29.85,SE,142,8.0,14.0,88,0.00,,,0.00,VWS V14.01,2013-03-09 10:20:00,
2013-03-09 04:24:00,63.2,59.6,29.85,SE,130,10.0,19.0,88,0.00,,,0.00,VWS V14.01,2013-03-09 10:24:00,
2013-03-09 04:25:00,63.6,60.0,29.85,SE,130,11.0,19.0,88,0.00,,,0.00,VWS V14.01,2013-03-09 10:25:00,
2013-03-09 04:29:00,63.2,59.6,29.85,ESE,123,11.0,17.0,88,0.00,,,0.00,VWS V14.01,2013-03-09 10:29:00,
2013-03-09 04:30:00,63.7,60.1,29.85,SSE,161,10.0,15.0,88,0.00,,,0.00,VWS V14.01,2013-03-09 10:30:00,
2013-03-09 04:34:00,63.2,59.6,29.85,SSE,164,11.0,16.0,88,0.00,,,0.00,VWS V14.01,2013-03-09 10:34:00,
2013-03-09 04:35:00,63.8,60.2,29.85,SE,137,7.0,17.0,88,0.00,,,0.00,VWS V14.01,2013-03-09 10:35:00,
2013-03-09 04:39:00,63.3,59.7,29.85,SE,146,5.0,20.0,88,0.00,,,0.00,VWS V14.01,2013-03-09 10:39:00,
2013-03-09 04:40:00,63.9,60.3,29.86,SE,135,6.0,15.0,88,0.00,,,0.00,VWS V14.01,2013-03-09 10:40:00,
2013-03-09 04:44:00,63.4,59.8,29.85,SSE,163,11.0,16.0,88,0.00,,,0.00,VWS V14.01,2013-03-09 10:44:00,
2013-03-09 04:45:00,63.9,60.3,29.86,SSE,161,8.0,14.0,88,0.00,,,0.00,VWS V14.01,2013-03-09 10:45:00,
2013-03-09 04:49:00,63.4,59.8,29.85,SE,136,9.0,18.0,88,0.00,,,0.00,VWS V14.01,2013-03-09 10:49:00,
2013-03-09 04:50:00,64.0,60.4,29.86,SSE,165,11.0,14.0,88,0.00,,,0.00,VWS V14.01,2013-03-09 10:50:00,
2013-03-09 04:54:00,63.3,59.7,29.85,SSE,153,8.0,15.0,88,0.00,,,0.00,VWS V14.01,2013-03-09 10:54:00,
2013-03-09 04:55:00,64.1,60.5,29.86,SSE,147,8.0,15.0,88,0.00,,,0.00,VWS V14.01,2013-03-09 10:55:00,
2013-03-09 04:59:00,63.4,59.8,29.85,SE,137,13.0,16.0,88,0.00,,,0.00,VWS V14.01,2013-03-09 10:59:00,
2013-03-09 05:00:00,64.1,60.5,29.86,SE,132,5.0,15.0,88,0.00,,,0.00,VWS V14.01,2013-03-09 11:00:00,
2013-03-09 05:04:00,63.4,59.8,29.85,SE,140,5.0,16.0,88,0.00,,,0.00,VWS V14.01,2013-03-09 11:04:00,
2013-03-09 05:05:00,64.1,60.5,29.86,South,171,8.0,15.0,88,0.00,,,0.00,VWS V14.01,2013-03-09 11:05:00,
2013-03-09 05:09:00,63.5,59.9,29.85,SE,135,13.0,15.0,88,0.00,,,0.00,VWS V14.01,2013-03-09 11:09:00,
2013-03-09 05:10:00,64.1,60.5,29.86,SE,132,7.0,14.0,88,0.00,,,0.00,VWS V14.01,2013-03-09 11:10:00,
2013-03-09 05:14:00,63.6,60.0,29.85,SSE,149,11.0,19.0,88,0.00,,,0.00,VWS V14.01,2013-03-09 11:14:00,
2013-03-09 05:15:00,64.0,60.4,29.85,SSE,150,6.0,15.0,88,0.00,,,0.00,VWS V14.01,2013-03-09 11:15:00,
2013-03-09 05:19:00,63.6,60.0,29.85,SE,146,9.0,14.0,88,0.00,,,0.00,VWS V14.01,2013-03-09 11:19:00,
2013-03-09 05:20:00,64.0,60.4,29.85,SE,136,10.0,13.0,88,0.00,,,0.00,VWS V14.01,2013-03-09 11:20:00,
2013-03-09 05:24:00,63.6,60.0,29.85,SSE,160,6.0,19.0,88,0.00,,,0.00,VWS V14.01,2013-03-09 11:24:00,
2013-03-09 05:25:00,64.0,60.4,29.86,SE,129,13.0,15.0,88,0.00,,,0.00,VWS V14.01,2013-03-09 11:25:00,
2013-03-09 05:29:00,63.6,60.0,29.85,South,178,4.0,12.0,88,0.00,,,0.00,VWS V14.01,2013-03-09 11:29:00,
2013-03-09 05:30:00,64.1,60.5,29.86,SE,130,8.0,14.0,88,0.00,,,0.00,VWS V14.01,2013-03-09 11:30:00,
2013-03-09 05:34:00,63.8,60.2,29.85,SE,136,8.0,17.0,88,0.00,,,0.00,VWS V14.01,2013-03-09 11:34:00,
2013-03-09 05:35:00,64.1,60.5,29.86,SE,125,11.0,16.0,88,0.00,,,0.00,VWS V14.01,2013-03-09 11:35:00,
2013-03-09 05:39:00,63.9,60.3,29.85,SE,136,7.0,15.0,88,0.00,,,0.00,VWS V14.01,2013-03-09 11:39:00,
2013-03-09 05:40:00,64.1,60.5,29.86,SE,125,9.0,12.0,88,0.00,,,0.00,VWS V14.01,2013-03-09 11:40:00,
2013-03-09 05:44:00,63.9,60.3,29.86,SSE,154,6.0,14.0,88,0.00,,,0.00,VWS V14.01,2013-03-09 11:44:00,
2013-03-09 05:45:00,64.1,60.5,29.86,SE,128,9.0,12.0,88,0.00,,,0.00,VWS V14.01,2013-03-09 11:45:00,
2013-03-09 05:49:00,64.0,60.4,29.86,ESE,118,13.0,14.0,88,0.00,,,0.00,VWS V14.01,2013-03-09 11:49:00,
2013-03-09 05:50:00,64.1,60.5,29.86,East,94,7.0,14.0,88,0.00,,,0.00,VWS V14.01,2013-03-09 11:50:00,
2013-03-09 05:54:00,64.1,60.5,29.86,SSE,167,6.0,15.0,88,0.00,,,0.00,VWS V14.01,2013-03-09 11:54:00,
2013-03-09 05:55:00,64.1,60.5,29.85,SE,133,6.0,11.0,88,0.00,,,0.00,VWS V14.01,2013-03-09 11:55:00,
2013-03-09 05:59:00,64.1,60.5,29.86,SSE,166,8.0,15.0,88,0.00,,,0.00,VWS V14.01,2013-03-09 11:59:00,
2013-03-09 06:00:00,64.2,60.6,29.86,SSE,150,5.0,12.0,88,0.00,,,0.00,VWS V14.01,2013-03-09 12:00:00,
2013-03-09 06:04:00,64.1,60.5,29.86,SSE,152,10.0,15.0,88,0.00,,,0.00,VWS V14.01,2013-03-09 12:04:00,
2013-03-09 06:05:00,64.2,60.6,29.86,SE,125,7.0,9.0,88,0.00,,,0.00,VWS V14.01,2013-03-09 12:05:00,
2013-03-09 06:09:00,64.1,60.5,29.85,SE,135,5.0,14.0,88,0.00,,,0.00,VWS V14.01,2013-03-09 12:09:00,
2013-03-09 06:10:00,64.2,60.9,29.86,SSE,151,6.0,12.0,89,0.00,,,0.00,VWS V14.01,2013-03-09 12:10:00,
2013-03-09 06:14:00,64.0,60.4,29.86,SSE,151,9.0,15.0,88,0.00,,,0.00,VWS V14.01,2013-03-09 12:14:00,
2013-03-09 06:15:00,64.3,60.7,29.86,SE,144,7.0,12.0,88,0.00,,,0.00,VWS V14.01,2013-03-09 12:15:00,
2013-03-09 06:19:00,64.0,60.4,29.86,SE,133,7.0,12.0,88,0.00,,,0.00,VWS V14.01,2013-03-09 12:19:00,
2013-03-09 06:20:00,64.4,60.8,29.86,SE,124,8.0,11.0,88,0.00,,,0.00,VWS V14.01,2013-03-09 12:20:00,
2013-03-09 06:24:00,64.0,60.4,29.86,SE,137,9.0,14.0,88,0.00,,,0.00,VWS V14.01,2013-03-09 12:24:00,
2013-03-09 06:25:00,64.4,60.8,29.86,East,101,10.0,12.0,88,0.00,,,0.00,VWS V14.01,2013-03-09 12:25:00,
2013-03-09 06:29:00,64.1,60.5,29.86,SE,142,13.0,14.0,88,0.00,,,0.00,VWS V14.01,2013-03-09 12:29:00,
2013-03-09 06:30:00,64.5,60.9,29.86,ESE,115,6.0,14.0,88,0.00,,,0.00,VWS V14.01,2013-03-09 12:30:00,
2013-03-09 06:34:00,64.1,60.5,29.86,SE,137,9.0,16.0,88,0.00,,,0.00,VWS V14.01,2013-03-09 12:34:00,
2013-03-09 06:35:00,64.5,60.9,29.86,ESE,112,11.0,14.0,88,0.00,,,0.00,VWS V14.01,2013-03-09 12:35:00,
2013-03-09 06:39:00,64.1,60.5,29.86,SE,137,6.0,12.0,88,0.00,,,0.00,VWS V14.01,2013-03-09 12:39:00,
2013-03-09 06:40:00,64.5,60.9,29.85,ESE,115,8.0,11.0,88,0.00,,,0.00,VWS V14.01,2013-03-09 12:40:00,
2013-03-09 06:44:00,64.1,60.5,29.86,SE,129,7.0,12.0,88,0.00,,,0.00,VWS V14.01,2013-03-09 12:44:00,
2013-03-09 06:45:00,64.6,61.0,29.85,ESE,109,7.0,12.0,88,0.00,,,0.00,VWS V14.01,2013-03-09 12:45:00,
2013-03-09 06:49:00,64.1,60.5,29.86,SE,143,9.0,14.0,88,0.00,,,0.00,VWS V14.01,2013-03-09 12:49:00,
2013-03-09 06:50:00,64.7,61.1,29.86,ESE,109,5.0,11.0,88,0.00,,,0.00,VWS V14.01,2013-03-09 12:50:00,
2013-03-09 06:54:00,64.1,60.5,29.86,SE,139,5.0,11.0,88,0.00,,,0.00,VWS V14.01,2013-03-09 12:54:00,
2013-03-09 06:55:00,64.7,61.1,29.86,SE,136,6.0,9.0,88,0.00,,,0.00,VWS V14.01,2013-03-09 12:55:00,
2013-03-09 06:59:00,64.2,60.6,29.86,SE,129,7.0,12.0,88,0.00,,,0.00,VWS V14.01,2013-03-09 12:59:00,
2013-03-09 07:00:00,64.7,61.1,29.86,SSE,147,5.0,9.0,88,0.00,,,0.00,VWS V14.01,2013-03-09 13:00:00,
2013-03-09 07:04:00,64.2,60.6,29.86,SE,136,5.0,9.0,88,0.00,,,0.00,VWS V14.01,2013-03-09 13:04:00,
2013-03-09 07:05:00,64.9,61.3,29.86,ESE,112,7.0,12.0,88,0.00,,,0.00,VWS V14.01,2013-03-09 13:05:00,
2013-03-09 07:09:00,64.2,60.6,29.86,SSE,149,11.0,12.0,88,0.00,,,0.00,VWS V14.01,2013-03-09 13:09:00,
2013-03-09 07:10:00,64.9,61.3,29.85,ESE,108,6.0,11.0,88,0.00,,,0.00,VWS V14.01,2013-03-09 13:10:00,
2013-03-09 07:14:00,64.3,60.7,29.86,SE,144,9.0,12.0,88,0.00,,,0.00,VWS V14.01,2013-03-09 13:14:00,
2013-03-09 07:15:00,65.0,61.4,29.86,ESE,123,5.0,8.0,88,0.00,,,0.00,VWS V14.01,2013-03-09 13:15:00,
2013-03-09 07:19:00,64.3,60.7,29.86,SE,129,6.0,11.0,88,0.00,,,0.00,VWS V14.01,2013-03-09 13:19:00,
2013-03-09 07:20:00,65.0,61.4,29.85,SE,130,13.0,14.0,88,0.00,,,0.00,VWS V14.01,2013-03-09 13:20:00,
2013-03-09 07:24:00,64.3,60.7,29.86,SE,139,8.0,11.0,88,0.00,,,0.00,VWS V14.01,2013-03-09 13:24:00,
2013-03-09 07:25:00,65.2,61.2,29.85,SE,142,5.0,16.0,87,0.00,,,0.00,VWS V14.01,2013-03-09 13:25:00,
2013-03-09 07:29:00,64.5,60.9,29.86,ESE,112,6.0,14.0,88,0.00,,,0.00,VWS V14.01,2013-03-09 13:29:00,
2013-03-09 07:30:00,65.4,61.4,29.85,SE,132,10.0,14.0,87,0.00,,,0.00,VWS V14.01,2013-03-09 13:30:00,
2013-03-09 07:34:00,64.5,60.9,29.85,ESE,123,5.0,14.0,88,0.00,,,0.00,VWS V14.01,2013-03-09 13:34:00,
2013-03-09 07:35:00,65.5,61.5,29.85,SE,135,6.0,12.0,87,0.00,,,0.00,VWS V14.01,2013-03-09 13:35:00,
2013-03-09 07:39:00,64.5,60.9,29.85,SE,130,10.0,11.0,88,0.00,,,0.00,VWS V14.01,2013-03-09 13:39:00,
2013-03-09 07:40:00,65.6,61.6,29.85,SE,141,16.0,18.0,87,0.00,,,0.00,VWS V14.01,2013-03-09 13:40:00,
2013-03-09 07:44:00,64.6,61.0,29.85,ESE,116,8.0,12.0,88,0.00,,,0.00,VWS V14.01,2013-03-09 13:44:00,
2013-03-09 07:45:00,65.8,61.8,29.85,ESE,116,12.0,16.0,87,0.00,,,0.00,VWS V14.01,2013-03-09 13:45:00,
2013-03-09 07:49:00,64.7,61.1,29.85,SE,125,6.0,11.0,88,0.00,,,0.00,VWS V14.01,2013-03-09 13:49:00,
2013-03-09 07:50:00,65.9,61.9,29.84,ESE,118,12.0,17.0,87,0.00,,,0.00,VWS V14.01,2013-03-09 13:50:00,
2013-03-09 07:54:00,64.7,61.1,29.85,SE,132,8.0,9.0,88,0.00,,,0.00,VWS V14.01,2013-03-09 13:54:00,
2013-03-09 07:55:00,66.0,61.7,29.84,SE,142,13.0,17.0,86,0.00,,,0.00,VWS V14.01,2013-03-09 13:55:00,
2013-03-09 07:59:00,64.7,61.1,29.85,SSE,153,5.0,9.0,88,0.00,,,0.00,VWS V14.01,2013-03-09 13:59:00,
2013-03-09 08:00:00,66.1,61.8,29.84,ESE,123,9.0,16.0,86,0.00,,,0.00,VWS V14.01,2013-03-09 14:00:00,
2013-03-09 08:04:00,64.8,61.2,29.86,ESE,115,7.0,12.0,88,0.00,,,0.00,VWS V14.01,2013-03-09 14:04:00,
2013-03-09 08:05:00,66.2,61.9,29.84,SE,144,7.0,20.0,86,0.00,,,0.00,VWS V14.01,2013-03-09 14:05:00,
2013-03-09 08:09:00,64.9,61.3,29.85,SE,128,5.0,10.0,88,0.00,,,0.00,VWS V14.01,2013-03-09 14:09:00,
2013-03-09 08:10:00,66.3,62.0,29.84,SE,146,10.0,14.0,86,0.00,,,0.00,VWS V14.01,2013-03-09 14:10:00,
2013-03-09 08:14:00,65.0,61.4,29.85,SSE,147,5.0,8.0,88,0.00,,,0.00,VWS V14.01,2013-03-09 14:14:00,
2013-03-09 08:15:00,66.3,62.0,29.84,SSE,160,11.0,19.0,86,0.00,,,0.00,VWS V14.01,2013-03-09 14:15:00,
2013-03-09 08:19:00,65.0,61.4,29.85,SE,139,8.0,11.0,88,0.00,,,0.00,VWS V14.01,2013-03-09 14:19:00,
2013-03-09 08:20:00,66.3,62.0,29.84,SE,126,8.0,18.0,86,0.00,,,0.00,VWS V14.01,2013-03-09 14:20:00,
2013-03-09 08:24:00,65.2,61.2,29.85,SE,143,5.0,16.0,87,0.00,,,0.00,VWS V14.01,2013-03-09 14:24:00,
2013-03-09 08:25:00,66.4,62.1,29.84,SSE,153,13.0,15.0,86,0.00,,,0.00,VWS V14.01,2013-03-09 14:25:00,
2013-03-09 08:29:00,65.4,61.4,29.85,SE,146,6.0,13.0,87,0.00,,,0.00,VWS V14.01,2013-03-09 14:29:00,
2013-03-09 08:30:00,66.6,62.3,29.84,SSE,168,14.0,16.0,86,0.00,,,0.00,VWS V14.01,2013-03-09 14:30:00,
2013-03-09 08:34:00,65.5,61.5,29.85,SE,146,8.0,12.0,87,0.00,,,0.00,VWS V14.01,2013-03-09 14:34:00,
2013-03-09 08:35:00,66.7,62.4,29.84,SSE,165,8.0,18.0,86,0.00,,,0.00,VWS V14.01,2013-03-09 14:35:00,
2013-03-09 08:39:00,65.6,61.6,29.85,SE,133,8.0,11.0,87,0.00,,,0.00,VWS V14.01,2013-03-09 14:39:00,
2013-03-09 08:40:00,66.7,62.0,29.83,SSE,156,11.0,18.0,85,0.00,,,0.00,VWS V14.01,2013-03-09 14:40:00,
2013-03-09 08:44:00,65.7,61.7,29.85,SE,141,12.0,16.0,87,0.00,,,0.00,VWS V14.01,2013-03-09 14:44:00,
2013-03-09 08:45:00,66.8,62.2,29.83,SE,142,7.0,14.0,85,0.00,,,0.00,VWS V14.01,2013-03-09 14:45:00,
2013-03-09 08:49:00,65.9,61.9,29.84,ESE,117,11.0,17.0,87,0.00,,,0.00,VWS V14.01,2013-03-09 14:49:00,
2013-03-09 08:50:00,66.9,62.2,29.83,SSE,159,9.0,14.0,85,0.00,,,0.00,VWS V14.01,2013-03-09 14:50:00,
2013-03-09 08:54:00,66.0,61.7,29.84,SE,134,14.0,17.0,86,0.00,,,0.00,VWS V14.01,2013-03-09 14:54:00,
2013-03-09 08:55:00,67.0,62.3,29.84,South,175,7.0,16.0,85,0.00,,,0.00,VWS V14.01,2013-03-09 14:55:00,
2013-03-09 08:59:00,66.1,61.8,29.84,SSE,147,6.0,16.0,86,0.00,,,0.00,VWS V14.01,2013-03-09 14:59:00,
2013-03-09 09:00:00,67.1,62.5,29.84,SSE,156,8.0,13.0,85,0.00,,,0.00,VWS V14.01,2013-03-09 15:00:00,
2013-03-09 09:04:00,66.2,61.9,29.84,SE,140,15.0,20.0,86,0.00,,,0.00,VWS V14.01,2013-03-09 15:04:00,
2013-03-09 09:05:00,67.2,62.5,29.83,SE,146,7.0,14.0,85,0.00,,,0.00,VWS V14.01,2013-03-09 15:05:00,
2013-03-09 09:09:00,66.3,62.0,29.84,SE,134,9.0,14.0,86,0.00,,,0.00,VWS V14.01,2013-03-09 15:09:00,
2013-03-09 09:10:00,67.3,62.6,29.83,SSE,150,8.0,15.0,85,0.00,,,0.00,VWS V14.01,2013-03-09 15:10:00,
2013-03-09 09:14:00,66.3,62.0,29.84,SSE,147,9.0,19.0,86,0.00,,,0.00,VWS V14.01,2013-03-09 15:14:00,
2013-03-09 09:15:00,67.3,62.6,29.83,SE,130,13.0,16.0,85,0.00,,,0.00,VWS V14.01,2013-03-09 15:15:00,
2013-03-09 09:19:00,66.3,62.0,29.84,SE,137,8.0,18.0,86,0.00,,,0.00,VWS V14.01,2013-03-09 15:19:00,
2013-03-09 09:20:00,67.2,62.5,29.83,SSE,156,13.0,14.0,85,0.00,,,0.00,VWS V14.01,2013-03-09 15:20:00,
2013-03-09 09:24:00,66.4,62.1,29.84,ESE,115,11.0,14.0,86,0.00,,,0.00,VWS V14.01,2013-03-09 15:24:00,
2013-03-09 09:25:00,67.3,62.6,29.83,SSE,166,11.0,13.0,85,0.00,,,0.00,VWS V14.01,2013-03-09 15:25:00,
2013-03-09 09:29:00,66.5,62.2,29.83,SSE,164,11.0,15.0,86,0.00,,,0.00,VWS V14.01,2013-03-09 15:29:00,
2013-03-09 09:30:00,67.3,62.6,29.83,SSE,161,8.0,14.0,85,0.00,,,0.00,VWS V14.01,2013-03-09 15:30:00,
2013-03-09 09:34:00,66.6,62.3,29.83,South,174,7.0,18.0,86,0.00,,,0.00,VWS V14.01,2013-03-09 15:34:00,
2013-03-09 09:35:00,67.3,62.6,29.83,South,169,6.0,18.0,85,0.00,,,0.00,VWS V14.01,2013-03-09 15:35:00,
2013-03-09 09:39:00,66.7,62.4,29.83,SSE,166,12.0,18.0,86,0.00,,,0.00,VWS V14.01,2013-03-09 15:39:00,
2013-03-09 09:40:00,67.5,62.8,29.83,SSE,149,7.0,12.0,85,0.00,,,0.00,VWS V14.01,2013-03-09 15:40:00,
2013-03-09 09:43:00,66.8,62.2,29.83,SSE,158,7.0,14.0,85,0.00,,,0.00,VWS V14.01,2013-03-09 15:43:00,
2013-03-09 09:45:00,67.5,62.8,29.83,SSE,156,15.0,19.0,85,0.00,,,0.00,VWS V14.01,2013-03-09 15:45:00,
2013-03-09 09:48:00,66.9,62.2,29.83,SSE,153,9.0,13.0,85,0.00,,,0.00,VWS V14.01,2013-03-09 15:48:00,
2013-03-09 09:50:00,67.6,62.9,29.82,SE,146,9.0,17.0,85,0.00,,,0.00,VWS V14.01,2013-03-09 15:50:00,
2013-03-09 09:53:00,67.0,62.3,29.84,SE,144,8.0,15.0,85,0.00,,,0.00,VWS V14.01,2013-03-09 15:53:00,
2013-03-09 09:55:00,67.7,62.7,29.83,SSE,168,7.0,15.0,84,0.00,,,0.00,VWS V14.01,2013-03-09 15:55:00,
2013-03-09 09:58:00,67.1,62.5,29.83,SE,130,9.0,13.0,85,0.00,,,0.00,VWS V14.01,2013-03-09 15:58:00,
2013-03-09 10:00:00,67.8,62.8,29.82,SSE,164,10.0,17.0,84,0.00,,,0.00,VWS V14.01,2013-03-09 16:00:00,
2013-03-09 10:03:00,67.2,62.5,29.84,SSE,157,10.0,14.0,85,0.00,,,0.00,VWS V14.01,2013-03-09 16:03:00,
2013-03-09 10:05:00,67.9,62.9,29.82,ESE,122,7.0,15.0,84,0.00,,,0.00,VWS V14.01,2013-03-09 16:05:00,
2013-03-09 10:08:00,67.2,62.5,29.83,SE,140,7.0,15.0,85,0.00,,,0.00,VWS V14.01,2013-03-09 16:08:00,
2013-03-09 10:10:00,68.0,63.0,29.82,SSE,165,9.0,22.0,84,0.00,,,0.00,VWS V14.01,2013-03-09 16:10:00,
2013-03-09 10:13:00,67.3,62.6,29.83,SE,137,9.0,16.0,85,0.00,,,0.00,VWS V14.01,2013-03-09 16:13:00,
2013-03-09 10:15:00,68.0,63.0,29.82,SSE,151,13.0,18.0,84,0.00,,,0.00,VWS V14.01,2013-03-09 16:15:00,
2013-03-09 10:18:00,67.2,62.5,29.83,SE,137,10.0,13.0,85,0.00,,,0.00,VWS V14.01,2013-03-09 16:18:00,
2013-03-09 10:20:00,68.1,63.1,29.82,South,169,16.0,18.0,84,0.00,,,0.00,VWS V14.01,2013-03-09 16:20:00,
2013-03-09 10:23:00,67.2,62.5,29.83,SE,135,11.0,13.0,85,0.00,,,0.00,VWS V14.01,2013-03-09 16:23:00,
2013-03-09 10:25:00,68.0,63.0,29.82,SSW,195,8.0,18.0,84,0.00,,,0.00,VWS V14.01,2013-03-09 16:25:00,
2013-03-09 10:28:00,67.3,62.6,29.83,SSE,147,10.0,14.0,85,0.00,,,0.00,VWS V14.01,2013-03-09 16:28:00,
2013-03-09 10:30:00,68.1,63.1,29.82,South,172,9.0,21.0,84,0.00,,,0.00,VWS V14.01,2013-03-09 16:30:00,
2013-03-09 10:33:00,67.3,62.6,29.83,SSE,157,7.0,18.0,85,0.00,,,0.00,VWS V14.01,2013-03-09 16:33:00,
2013-03-09 10:35:00,68.2,63.2,29.82,SE,140,11.0,14.0,84,0.00,,,0.00,VWS V14.01,2013-03-09 16:35:00,
2013-03-09 10:38:00,67.4,62.7,29.83,South,174,7.0,11.0,85,0.00,,,0.00,VWS V14.01,2013-03-09 16:38:00,
2013-03-09 10:40:00,68.3,63.3,29.82,SSE,158,10.0,20.0,84,0.00,,,0.00,VWS V14.01,2013-03-09 16:40:00,
2013-03-09 10:43:00,67.5,62.8,29.83,SSE,158,11.0,17.0,85,0.00,,,0.00,VWS V14.01,2013-03-09 16:43:00,
2013-03-09 10:45:00,68.3,63.3,29.81,SSE,157,10.0,17.0,84,0.00,,,0.00,VWS V14.01,2013-03-09 16:45:00,
2013-03-09 10:48:00,67.6,62.9,29.83,South,180,11.0,17.0,85,0.00,,,0.00,VWS V14.01,2013-03-09 16:48:00,
2013-03-09 10:50:00,68.3,63.3,29.81,SSE,150,9.0,19.0,84,0.00,,,0.00,VWS V14.01,2013-03-09 16:50:00,
2013-03-09 10:53:00,67.6,62.6,29.82,South,176,10.0,15.0,84,0.00,,,0.00,VWS V14.01,2013-03-09 16:53:00,
2013-03-09 10:55:00,68.3,63.3,29.81,South,180,12.0,16.0,84,0.00,,,0.00,VWS V14.01,2013-03-09 16:55:00,
2013-03-09 10:58:00,67.7,62.7,29.82,South,185,10.0,13.0,84,0.00,,,0.00,VWS V14.01,2013-03-09 16:58:00,
2013-03-09 11:00:00,68.3,63.3,29.81,SSE,156,16.0,22.0,84,0.00,,,0.00,VWS V14.01,2013-03-09 17:00:00,
2013-03-09 11:03:00,67.8,62.8,29.82,SSE,149,6.0,12.0,84,0.00,,,0.00,VWS V14.01,2013-03-09 17:03:00,
2013-03-09 11:05:00,68.3,63.3,29.81,SSE,156,9.0,22.0,84,0.00,,,0.00,VWS V14.01,2013-03-09 17:05:00,
2013-03-09 11:08:00,67.9,62.9,29.82,SSE,159,22.0,22.0,84,0.00,,,0.00,VWS V14.01,2013-03-09 17:08:00,
2013-03-09 11:10:00,68.3,63.3,29.81,South,175,13.0,20.0,84,0.00,,,0.00,VWS V14.01,2013-03-09 17:10:00,
2013-03-09 11:13:00,68.0,63.0,29.82,SSE,166,14.0,16.0,84,0.00,,,0.00,VWS V14.01,2013-03-09 17:13:00,
2013-03-09 11:15:00,68.3,63.3,29.80,SE,130,7.0,18.0,84,0.00,,,0.00,VWS V14.01,2013-03-09 17:15:00,
2013-03-09 11:18:00,68.0,63.0,29.82,SSE,149,9.0,17.0,84,0.00,,,0.00,VWS V14.01,2013-03-09 17:18:00,
2013-03-09 11:20:00,68.3,63.3,29.80,SSE,161,7.0,16.0,84,0.00,,,0.00,VWS V14.01,2013-03-09 17:20:00,
2013-03-09 11:23:00,68.0,63.0,29.82,SE,135,12.0,18.0,84,0.00,,,0.00,VWS V14.01,2013-03-09 17:23:00,
2013-03-09 11:25:00,68.3,63.3,29.80,SE,138,14.0,14.0,84,0.00,,,0.00,VWS V14.01,2013-03-09 17:25:00,
2013-03-09 11:28:00,68.1,63.1,29.82,SSE,152,17.0,21.0,84,0.00,,,0.00,VWS V14.01,2013-03-09 17:28:00,
2013-03-09 11:30:00,68.3,63.3,29.80,South,169,7.0,14.0,84,0.00,,,0.00,VWS V14.01,2013-03-09 17:30:00,
2013-03-09 11:33:00,68.2,63.2,29.82,SSE,149,8.0,14.0,84,0.00,,,0.00,VWS V14.01,2013-03-09 17:33:00,
2013-03-09 11:35:00,68.3,63.3,29.80,SSE,164,11.0,15.0,84,0.00,,,0.00,VWS V14.01,2013-03-09 17:35:00,
2013-03-09 11:38:00,68.2,63.2,29.81,ESE,119,7.0,13.0,84,0.00,,,0.00,VWS V14.01,2013-03-09 17:38:00,
2013-03-09 11:40:00,68.3,63.3,29.80,SSW,195,4.0,16.0,84,0.00,,,0.00,VWS V14.01,2013-03-09 17:40:00,
2013-03-09 11:43:00,68.3,63.3,29.81,SE,143,8.0,17.0,84,0.00,,,0.00,VWS V14.01,2013-03-09 17:43:00,
2013-03-09 11:45:00,68.3,63.3,29.80,South,176,4.0,9.0,84,0.00,,,0.00,VWS V14.01,2013-03-09 17:45:00,
2013-03-09 11:48:00,68.3,63.3,29.81,South,175,8.0,19.0,84,0.00,,,0.00,VWS V14.01,2013-03-09 17:48:00,
2013-03-09 11:50:00,68.3,63.6,29.79,SSE,167,4.0,9.0,85,0.00,,,0.00,VWS V14.01,2013-03-09 17:50:00,
2013-03-09 11:53:00,68.3,63.3,29.81,SSE,160,13.0,15.0,84,0.00,,,0.00,VWS V14.01,2013-03-09 17:53:00,
2013-03-09 11:55:00,68.2,63.5,29.79,SSE,157,5.0,9.0,85,0.00,,,0.00,VWS V14.01,2013-03-09 17:55:00,
2013-03-09 11:58:00,68.3,63.3,29.81,SE,142,10.0,19.0,84,0.00,,,0.00,VWS V14.01,2013-03-09 17:58:00,
2013-03-09 12:00:00,68.1,63.4,29.78,SSE,158,3.0,15.0,85,0.00,,,0.00,VWS V14.01,2013-03-09 18:00:00,
2013-03-09 12:03:00,68.3,63.3,29.81,South,169,12.0,22.0,84,0.00,,,0.00,VWS V14.01,2013-03-09 18:03:00,
2013-03-09 12:05:00,68.1,63.4,29.78,South,181,4.0,13.0,85,0.00,,,0.00,VWS V14.01,2013-03-09 18:05:00,
2013-03-09 12:08:00,68.3,63.3,29.81,SSE,164,10.0,20.0,84,0.00,,,0.00,VWS V14.01,2013-03-09 18:08:00,
2013-03-09 12:10:00,68.1,63.4,29.78,SSE,153,6.0,13.0,85,0.00,,,0.00,VWS V14.01,2013-03-09 18:10:00,
2013-03-09 12:13:00,68.3,63.3,29.80,SSE,160,8.0,16.0,84,0.00,,,0.00,VWS V14.01,2013-03-09 18:13:00,
2013-03-09 12:15:00,68.1,63.4,29.78,SSE,168,5.0,13.0,85,0.00,,,0.00,VWS V14.01,2013-03-09 18:15:00,
2013-03-09 12:18:00,68.3,63.3,29.80,SE,137,10.0,16.0,84,0.00,,,0.00,VWS V14.01,2013-03-09 18:18:00,
2013-03-09 12:20:00,68.1,63.8,29.77,SSE,161,5.0,9.0,86,0.00,,,0.00,VWS V14.01,2013-03-09 18:20:00,
2013-03-09 12:23:00,68.3,63.3,29.80,South,171,4.0,11.0,84,0.00,,,0.00,VWS V14.01,2013-03-09 18:23:00,
2013-03-09 12:25:00,68.2,63.9,29.77,SE,132,5.0,9.0,86,0.00,,,0.00,VWS V14.01,2013-03-09 18:25:00,
2013-03-09 12:28:00,68.3,63.3,29.80,SE,146,8.0,14.0,84,0.00,,,0.00,VWS V14.01,2013-03-09 18:28:00,
2013-03-09 12:30:00,68.3,63.6,29.77,SSE,164,8.0,10.0,85,0.00,,,0.00,VWS V14.01,2013-03-09 18:30:00,
2013-03-09 12:33:00,68.3,63.3,29.80,SSE,164,7.0,11.0,84,0.00,,,0.00,VWS V14.01,2013-03-09 18:33:00,
2013-03-09 12:35:00,68.4,63.7,29.76,South,170,8.0,11.0,85,0.00,,,0.00,VWS V14.01,2013-03-09 18:35:00,
2013-03-09 12:38:00,68.3,63.3,29.80,South,187,3.0,16.0,84,0.00,,,0.00,VWS V14.01,2013-03-09 18:38:00,
2013-03-09 12:40:00,68.4,63.7,29.76,South,175,7.0,12.0,85,0.00,,,0.00,VWS V14.01,2013-03-09 18:40:00,
2013-03-09 12:43:00,68.3,63.3,29.79,South,170,6.0,9.0,84,0.00,,,0.00,VWS V14.01,2013-03-09 18:43:00,
2013-03-09 12:45:00,68.6,63.9,29.76,South,177,7.0,11.0,85,0.00,,,0.00,VWS V14.01,2013-03-09 18:45:00,
2013-03-09 12:48:00,68.3,63.6,29.79,WNW,290,3.0,7.0,85,0.00,,,0.00,VWS V14.01,2013-03-09 18:48:00,
2013-03-09 12:50:00,68.7,64.0,29.75,SE,142,5.0,10.0,85,0.00,,,0.00,VWS V14.01,2013-03-09 18:50:00,
2013-03-09 12:53:00,68.3,63.6,29.79,South,171,6.0,9.0,85,0.00,,,0.00,VWS V14.01,2013-03-09 18:53:00,
2013-03-09 12:55:00,68.8,64.1,29.75,SE,136,8.0,12.0,85,0.00,,,0.00,VWS V14.01,2013-03-09 18:55:00,
2013-03-09 12:58:00,68.2,63.5,29.79,SE,135,12.0,15.0,85,0.00,,,0.00,VWS V14.01,2013-03-09 18:58:00,
2013-03-09 13:00:00,68.8,64.1,29.75,SSE,165,7.0,12.0,85,0.00,,,0.00,VWS V14.01,2013-03-09 19:00:00,
2013-03-09 13:03:00,68.1,63.4,29.79,South,170,9.0,12.0,85,0.00,,,0.00,VWS V14.01,2013-03-09 19:03:00,
2013-03-09 13:05:00,68.9,63.9,29.74,SSE,151,6.0,14.0,84,0.00,,,0.00,VWS V14.01,2013-03-09 19:05:00,
2013-03-09 13:08:00,68.1,63.4,29.78,South,170,8.0,13.0,85,0.00,,,0.00,VWS V14.01,2013-03-09 19:08:00,
2013-03-09 13:10:00,69.0,64.3,29.74,SE,144,5.0,12.0,85,0.00,,,0.00,VWS V14.01,2013-03-09 19:10:00,
2013-03-09 13:13:00,68.1,63.4,29.78,South,175,8.0,13.0,85,0.00,,,0.00,VWS V14.01,2013-03-09 19:13:00,
2013-03-09 13:15:00,69.0,64.3,29.74,SSE,162,8.0,11.0,85,0.00,,,0.00,VWS V14.01,2013-03-09 19:15:00,
2013-03-09 13:18:00,68.0,63.3,29.77,SSE,163,5.0,9.0,85,0.00,,,0.00,VWS V14.01,2013-03-09 19:18:00,
2013-03-09 13:20:00,68.9,64.2,29.73,SSE,159,8.0,12.0,85,0.00,,,0.00,VWS V14.01,2013-03-09 19:20:00,
2013-03-09 13:23:00,68.1,63.8,29.77,South,174,3.0,9.0,86,0.00,,,0.00,VWS V14.01,2013-03-09 19:23:00,
2013-03-09 13:25:00,69.0,64.3,29.73,South,171,6.0,11.0,85,0.00,,,0.00,VWS V14.01,2013-03-09 19:25:00,
2013-03-09 13:28:00,68.3,63.6,29.76,SSE,160,5.0,10.0,85,0.00,,,0.00,VWS V14.01,2013-03-09 19:28:00,
2013-03-09 13:30:00,69.0,64.3,29.73,South,177,6.0,9.0,85,0.00,,,0.00,VWS V14.01,2013-03-09 19:30:00,
2013-03-09 13:33:00,68.4,63.7,29.76,South,171,6.0,11.0,85,0.00,,,0.00,VWS V14.01,2013-03-09 19:33:00,
2013-03-09 13:35:00,69.1,64.1,29.72,SE,146,5.0,11.0,84,0.00,,,0.00,VWS V14.01,2013-03-09 19:35:00,
2013-03-09 13:38:00,68.4,63.7,29.76,SSE,147,4.0,11.0,85,0.00,,,0.00,VWS V14.01,2013-03-09 19:38:00,
2013-03-09 13:40:00,69.1,64.1,29.72,SE,141,8.0,13.0,84,0.00,,,0.00,VWS V14.01,2013-03-09 19:40:00,
2013-03-09 13:43:00,68.6,63.9,29.76,South,172,6.0,11.0,85,0.00,,,0.00,VWS V14.01,2013-03-09 19:43:00,
2013-03-09 13:45:00,69.2,64.2,29.72,SSE,152,6.0,10.0,84,0.00,,,0.00,VWS V14.01,2013-03-09 19:45:00,
2013-03-09 13:48:00,68.7,64.0,29.75,South,181,7.0,8.0,85,0.00,,,0.00,VWS V14.01,2013-03-09 19:48:00,
2013-03-09 13:50:00,69.3,64.3,29.72,SSE,151,5.0,11.0,84,0.00,,,0.00,VWS V14.01,2013-03-09 19:50:00,
2013-03-09 13:53:00,68.8,64.1,29.75,SSE,153,6.0,12.0,85,0.00,,,0.00,VWS V14.01,2013-03-09 19:53:00,
2013-03-09 13:55:00,69.5,64.5,29.71,SE,146,9.0,13.0,84,0.00,,,0.00,VWS V14.01,2013-03-09 19:55:00,
2013-03-09 13:58:00,68.8,64.1,29.75,SE,136,11.0,12.0,85,0.00,,,0.00,VWS V14.01,2013-03-09 19:58:00,
2013-03-09 14:00:00,69.7,64.7,29.71,SSE,158,8.0,11.0,84,0.00,,,0.00,VWS V14.01,2013-03-09 20:00:00,
2013-03-09 14:03:00,68.8,64.1,29.74,South,175,6.0,14.0,85,0.00,,,0.00,VWS V14.01,2013-03-09 20:03:00,
2013-03-09 14:05:00,70.0,64.9,29.70,SE,144,4.0,15.0,84,0.00,,,0.00,VWS V14.01,2013-03-09 20:05:00,
2013-03-09 14:08:00,69.0,64.3,29.74,SE,145,6.0,12.0,85,0.00,,,0.00,VWS V14.01,2013-03-09 20:08:00,
2013-03-09 14:10:00,70.3,64.9,29.70,SE,139,8.0,13.0,83,0.00,,,0.00,VWS V14.01,2013-03-09 20:10:00,
2013-03-09 14:13:00,69.0,64.3,29.74,SSE,165,8.0,8.0,85,0.00,,,0.00,VWS V14.01,2013-03-09 20:13:00,
2013-03-09 14:15:00,70.5,65.1,29.70,SE,137,6.0,16.0,83,0.00,,,0.00,VWS V14.01,2013-03-09 20:15:00,
2013-03-09 14:18:00,68.9,64.2,29.73,SE,130,8.0,12.0,85,0.00,,,0.00,VWS V14.01,2013-03-09 20:18:00,
2013-03-09 14:20:00,70.9,65.1,29.70,SSE,147,6.0,11.0,82,0.00,,,0.00,VWS V14.01,2013-03-09 20:20:00,
2013-03-09 14:23:00,69.0,64.3,29.73,SSE,159,5.0,11.0,85,0.00,,,0.00,VWS V14.01,2013-03-09 20:23:00,
2013-03-09 14:25:00,71.2,65.4,29.70,SE,137,12.0,12.0,82,0.00,,,0.00,VWS V14.01,2013-03-09 20:25:00,
2013-03-09 14:28:00,69.0,64.3,29.73,SSE,161,6.0,9.0,85,0.00,,,0.00,VWS V14.01,2013-03-09 20:28:00,
2013-03-09 14:30:00,71.1,65.0,29.70,SE,139,14.0,18.0,81,0.00,,,0.00,VWS V14.01,2013-03-09 20:30:00,
2013-03-09 14:33:00,69.1,64.1,29.73,SE,135,8.0,11.0,84,0.00,,,0.00,VWS V14.01,2013-03-09 20:33:00,
2013-03-09 14:35:00,71.1,65.0,29.70,SE,131,10.0,18.0,81,0.00,,,0.00,VWS V14.01,2013-03-09 20:35:00,
2013-03-09 14:38:00,69.1,64.4,29.72,SE,142,8.0,9.0,85,0.00,,,0.00,VWS V14.01,2013-03-09 20:38:00,
2013-03-09 14:40:00,71.1,65.0,29.70,SE,136,6.0,14.0,81,0.00,,,0.00,VWS V14.01,2013-03-09 20:40:00,
2013-03-09 14:43:00,69.1,64.1,29.72,South,178,5.0,9.0,84,0.00,,,0.00,VWS V14.01,2013-03-09 20:43:00,
2013-03-09 14:45:00,71.3,65.2,29.70,SSE,164,9.0,14.0,81,0.00,,,0.00,VWS V14.01,2013-03-09 20:45:00,
2013-03-09 14:48:00,69.2,64.2,29.72,SSE,160,7.0,9.0,84,0.00,,,0.00,VWS V14.01,2013-03-09 20:48:00,
2013-03-09 14:50:00,71.6,65.1,29.69,SE,137,13.0,17.0,80,0.00,,,0.00,VWS V14.01,2013-03-09 20:50:00,
2013-03-09 14:53:00,69.4,64.4,29.71,SSE,157,6.0,13.0,84,0.00,,,0.00,VWS V14.01,2013-03-09 20:53:00,
2013-03-09 14:55:00,71.9,65.4,29.69,ESE,116,12.0,15.0,80,0.00,,,0.00,VWS V14.01,2013-03-09 20:55:00,
2013-03-09 14:58:00,69.6,64.6,29.71,SSE,168,5.0,11.0,84,0.00,,,0.00,VWS V14.01,2013-03-09 20:58:00,
2013-03-09 15:00:00,72.4,65.5,29.68,SE,135,11.0,19.0,79,0.00,,,0.00,VWS V14.01,2013-03-09 21:00:00,
2013-03-09 15:03:00,69.8,64.8,29.70,SSE,163,4.0,15.0,84,0.00,,,0.00,VWS V14.01,2013-03-09 21:03:00,
2013-03-09 15:05:00,72.9,65.6,29.68,SSE,161,11.0,13.0,78,0.00,,,0.00,VWS V14.01,2013-03-09 21:05:00,
2013-03-09 15:08:00,70.2,64.8,29.70,ESE,109,7.0,13.0,83,0.00,,,0.00,VWS V14.01,2013-03-09 21:08:00,
2013-03-09 15:10:00,72.9,65.6,29.68,SE,133,4.0,15.0,78,0.00,,,0.00,VWS V14.01,2013-03-09 21:10:00,
2013-03-09 15:13:00,70.4,65.0,29.70,SE,145,10.0,16.0,83,0.00,,,0.00,VWS V14.01,2013-03-09 21:13:00,
2013-03-09 15:15:00,72.8,65.6,29.68,SE,146,11.0,19.0,78,0.00,,,0.00,VWS V14.01,2013-03-09 21:15:00,
2013-03-09 15:18:00,70.7,65.3,29.70,SE,132,10.0,10.0,83,0.00,,,0.00,VWS V14.01,2013-03-09 21:18:00,
2013-03-09 15:20:00,72.9,65.3,29.67,SE,140,10.0,16.0,77,0.00,,,0.00,VWS V14.01,2013-03-09 21:20:00,
2013-03-09 15:23:00,71.0,65.2,29.70,SE,137,10.0,11.0,82,0.00,,,0.00,VWS V14.01,2013-03-09 21:23:00,
2013-03-09 15:25:00,73.1,65.5,29.68,SE,132,10.0,15.0,77,0.00,,,0.00,VWS V14.01,2013-03-09 21:25:00,
2013-03-09 15:28:00,71.1,65.0,29.70,SE,144,9.0,18.0,81,0.00,,,0.00,VWS V14.01,2013-03-09 21:28:00,
2013-03-09 15:30:00,72.6,65.3,29.68,SE,142,11.0,16.0,78,0.00,,,0.00,VWS V14.01,2013-03-09 21:30:00,
2013-03-09 15:33:00,71.1,65.0,29.70,SE,135,12.0,18.0,81,0.00,,,0.00,VWS V14.01,2013-03-09 21:33:00,
2013-03-09 15:35:00,72.2,65.0,29.67,SE,132,13.0,19.0,78,0.00,,,0.00,VWS V14.01,2013-03-09 21:35:00,
2013-03-09 15:38:00,71.1,65.0,29.70,SE,129,8.0,14.0,81,0.00,,,0.00,VWS V14.01,2013-03-09 21:38:00,
2013-03-09 15:40:00,72.1,65.2,29.67,SSE,151,10.0,18.0,79,0.00,,,0.00,VWS V14.01,2013-03-09 21:40:00,
2013-03-09 15:43:00,71.2,65.1,29.70,SE,139,9.0,14.0,81,0.00,,,0.00,VWS V14.01,2013-03-09 21:43:00,
2013-03-09 15:45:00,72.0,65.1,29.67,SE,139,13.0,14.0,79,0.00,,,0.00,VWS V14.01,2013-03-09 21:45:00,
2013-03-09 15:48:00,71.5,65.0,29.69,SE,137,15.0,15.0,80,0.00,,,0.00,VWS V14.01,2013-03-09 21:48:00,
2013-03-09 15:50:00,71.8,64.9,29.68,SE,127,7.0,14.0,79,0.00,,,0.00,VWS V14.01,2013-03-09 21:50:00,
2013-03-09 15:53:00,71.8,65.3,29.69,SE,144,12.0,15.0,80,0.00,,,0.00,VWS V14.01,2013-03-09 21:53:00,
2013-03-09 15:55:00,71.8,64.9,29.68,SE,146,9.0,10.0,79,0.00,,,0.00,VWS V14.01,2013-03-09 21:55:00,
2013-03-09 15:58:00,72.1,65.2,29.68,SE,133,13.0,19.0,79,0.00,,,0.00,VWS V14.01,2013-03-09 21:58:00,
2013-03-09 16:00:00,71.8,64.9,29.68,SSE,156,11.0,15.0,79,0.00,,,0.00,VWS V14.01,2013-03-09 22:00:00,
2013-03-09 16:03:00,72.8,65.6,29.68,South,191,6.0,13.0,78,0.00,,,0.00,VWS V14.01,2013-03-09 22:03:00,
2013-03-09 16:05:00,71.8,64.9,29.68,SE,134,8.0,14.0,79,0.00,,,0.00,VWS V14.01,2013-03-09 22:05:00,
2013-03-09 16:08:00,72.8,65.2,29.68,SE,134,13.0,15.0,77,0.00,,,0.00,VWS V14.01,2013-03-09 22:08:00,
2013-03-09 16:10:00,72.0,65.1,29.68,SE,144,10.0,15.0,79,0.00,,,0.00,VWS V14.01,2013-03-09 22:10:00,
2013-03-09 16:13:00,72.8,65.2,29.68,SE,132,14.0,15.0,77,0.00,,,0.00,VWS V14.01,2013-03-09 22:13:00,
2013-03-09 16:15:00,72.3,65.1,29.68,SE,134,7.0,18.0,78,0.00,,,0.00,VWS V14.01,2013-03-09 22:15:00,
2013-03-09 16:18:00,72.9,65.7,29.67,SSE,166,9.0,16.0,78,0.00,,,0.00,VWS V14.01,2013-03-09 22:18:00,
2013-03-09 16:20:00,72.4,64.8,29.67,SE,132,15.0,15.0,77,0.00,,,0.00,VWS V14.01,2013-03-09 22:20:00,
2013-03-09 16:23:00,73.1,65.8,29.67,SE,133,7.0,14.0,78,0.00,,,0.00,VWS V14.01,2013-03-09 22:23:00,
2013-03-09 16:25:00,72.4,64.8,29.67,SSE,152,11.0,17.0,77,0.00,,,0.00,VWS V14.01,2013-03-09 22:25:00,
2013-03-09 16:28:00,72.8,65.6,29.68,ESE,115,10.0,16.0,78,0.00,,,0.00,VWS V14.01,2013-03-09 22:28:00,
2013-03-09 16:30:00,72.3,64.7,29.67,SSE,153,10.0,15.0,77,0.00,,,0.00,VWS V14.01,2013-03-09 22:30:00,
2013-03-09 16:33:00,72.4,65.2,29.68,ESE,112,13.0,15.0,78,0.00,,,0.00,VWS V14.01,2013-03-09 22:33:00,
2013-03-09 16:35:00,72.2,65.0,29.67,SE,146,5.0,12.0,78,0.00,,,0.00,VWS V14.01,2013-03-09 22:35:00,
2013-03-09 16:38:00,72.1,64.9,29.67,SE,138,17.0,17.0,78,0.00,,,0.00,VWS V14.01,2013-03-09 22:38:00,
2013-03-09 16:40:00,72.2,65.0,29.67,SE,142,6.0,11.0,78,0.00,,,0.00,VWS V14.01,2013-03-09 22:40:00,
2013-03-09 16:43:00,72.0,65.1,29.67,SE,131,12.0,14.0,79,0.00,,,0.00,VWS V14.01,2013-03-09 22:43:00,
2013-03-09 16:45:00,72.1,64.9,29.67,SSE,147,11.0,14.0,78,0.00,,,0.00,VWS V14.01,2013-03-09 22:45:00,
2013-03-09 16:48:00,71.9,65.0,29.68,SE,139,12.0,14.0,79,0.00,,,0.00,VWS V14.01,2013-03-09 22:48:00,
2013-03-09 16:50:00,72.0,64.4,29.67,SE,137,7.0,13.0,77,0.00,,,0.00,VWS V14.01,2013-03-09 22:50:00,
2013-03-09 16:53:00,71.8,64.9,29.68,SE,136,5.0,9.0,79,0.00,,,0.00,VWS V14.01,2013-03-09 22:53:00,
2013-03-09 16:55:00,72.0,64.4,29.67,SE,137,10.0,15.0,77,0.00,,,0.00,VWS V14.01,2013-03-09 22:55:00,
2013-03-09 16:58:00,71.8,64.9,29.68,SE,137,11.0,15.0,79,0.00,,,0.00,VWS V14.01,2013-03-09 22:58:00,
2013-03-09 17:00:00,71.8,64.2,29.66,SE,143,9.0,17.0,77,0.00,,,0.00,VWS V14.01,2013-03-09 23:00:00,
2013-03-09 17:03:00,71.8,64.9,29.68,SE,142,9.0,14.0,79,0.00,,,0.00,VWS V14.01,2013-03-09 23:03:00,
2013-03-09 17:05:00,71.8,64.6,29.66,SSE,162,6.0,14.0,78,0.00,,,0.00,VWS V14.01,2013-03-09 23:05:00,
2013-03-09 17:08:00,71.9,65.0,29.68,SE,139,11.0,12.0,79,0.00,,,0.00,VWS V14.01,2013-03-09 23:08:00,
2013-03-09 17:10:00,71.6,64.4,29.66,SE,132,15.0,17.0,78,0.00,,,0.00,VWS V14.01,2013-03-09 23:10:00,
2013-03-09 17:13:00,72.2,65.0,29.67,SSE,149,13.0,18.0,78,0.00,,,0.00,VWS V14.01,2013-03-09 23:13:00,
2013-03-09 17:15:00,71.5,64.3,29.66,SE,142,11.0,17.0,78,0.00,,,0.00,VWS V14.01,2013-03-09 23:15:00,
2013-03-09 17:18:00,72.4,65.2,29.67,SSE,158,8.0,13.0,78,0.00,,,0.00,VWS V14.01,2013-03-09 23:18:00,
2013-03-09 17:20:00,71.4,64.2,29.66,SE,142,12.0,17.0,78,0.00,,,0.00,VWS V14.01,2013-03-09 23:20:00,
2013-03-09 17:23:00,72.5,64.9,29.67,SE,140,8.0,17.0,77,0.00,,,0.00,VWS V14.01,2013-03-09 23:23:00,
2013-03-09 17:25:00,71.2,64.0,29.66,ESE,112,17.0,17.0,78,0.00,,,0.00,VWS V14.01,2013-03-09 23:25:00,
2013-03-09 17:28:00,72.4,64.8,29.67,SSE,154,9.0,15.0,77,0.00,,,0.00,VWS V14.01,2013-03-09 23:28:00,
2013-03-09 17:30:00,71.0,64.2,29.65,SE,135,16.0,18.0,79,0.00,,,0.00,VWS V14.01,2013-03-09 23:30:00,
2013-03-09 17:33:00,72.3,64.7,29.67,SE,127,8.0,12.0,77,0.00,,,0.00,VWS V14.01,2013-03-09 23:33:00,
2013-03-09 17:35:00,70.9,64.1,29.65,SE,125,13.0,18.0,79,0.00,,,0.00,VWS V14.01,2013-03-09 23:35:00,
2013-03-09 17:38:00,72.2,64.6,29.67,SE,127,9.0,11.0,77,0.00,,,0.00,VWS V14.01,2013-03-09 23:38:00,
2013-03-09 17:40:00,70.7,63.9,29.65,SE,136,18.0,22.0,79,0.00,,,0.00,VWS V14.01,2013-03-09 23:40:00,
2013-03-09 17:43:00,72.1,64.5,29.67,SE,136,12.0,13.0,77,0.00,,,0.00,VWS V14.01,2013-03-09 23:43:00,
2013-03-09 17:45:00,70.4,63.6,29.65,SE,126,13.0,20.0,79,0.00,,,0.00,VWS V14.01,2013-03-09 23:45:00,
2013-03-09 17:48:00,72.1,64.5,29.67,SE,139,10.0,12.0,77,0.00,,,0.00,VWS V14.01,2013-03-09 23:48:00,
2013-03-09 17:50:00,70.1,63.7,29.65,SE,125,12.0,17.0,80,0.00,,,0.00,VWS V14.01,2013-03-09 23:50:00,
2013-03-09 17:53:00,72.0,64.4,29.67,ESE,120,11.0,15.0,77,0.00,,,0.00,VWS V14.01,2013-03-09 23:53:00,
2013-03-09 17:55:00,69.9,63.5,29.64,ESE,119,12.0,22.0,80,0.00,,,0.00,VWS V14.01,2013-03-09 23:55:00,
2013-03-09 17:58:00,71.9,64.3,29.67,SE,129,12.0,17.0,77,0.00,,,0.00,VWS V14.01,2013-03-09 23:58:00,
2013-03-09 18:00:00,69.7,63.6,29.64,SE,136,7.0,24.0,81,0.00,,,0.00,VWS V14.01,2013-03-10 00:00:00,
2013-03-09 18:03:00,71.8,64.6,29.66,SSE,149,7.0,14.0,78,0.00,,,0.00,VWS V14.01,2013-03-10 00:03:00,
2013-03-09 18:05:00,69.6,63.5,29.64,ESE,116,8.0,18.0,81,0.00,,,0.00,VWS V14.01,2013-03-10 00:05:00,
2013-03-09 18:08:00,71.7,64.5,29.66,SSE,161,10.0,17.0,78,0.00,,,0.00,VWS V14.01,2013-03-10 00:08:00,
2013-03-09 18:10:00,69.5,63.4,29.64,SE,143,12.0,19.0,81,0.00,,,0.00,VWS V14.01,2013-03-10 00:10:00,
2013-03-09 18:13:00,71.6,64.4,29.66,SSE,160,10.0,17.0,78,0.00,,,0.00,VWS V14.01,2013-03-10 00:13:00,
2013-03-09 18:15:00,69.3,63.6,29.65,SSE,149,9.0,16.0,82,0.00,,,0.00,VWS V14.01,2013-03-10 00:15:00,
2013-03-09 18:18:00,71.5,64.3,29.66,SE,142,11.0,15.0,78,0.00,,,0.00,VWS V14.01,2013-03-10 00:18:00,
2013-03-09 18:20:00,69.2,63.5,29.64,ESE,113,14.0,21.0,82,0.00,,,0.00,VWS V14.01,2013-03-10 00:20:00,
2013-03-09 18:23:00,71.3,64.1,29.66,SE,146,7.0,15.0,78,0.00,,,0.00,VWS V14.01,2013-03-10 00:23:00,
2013-03-09 18:25:00,69.0,63.3,29.64,SE,142,14.0,19.0,82,0.00,,,0.00,VWS V14.01,2013-03-10 00:25:00,
2013-03-09 18:28:00,71.1,64.3,29.66,SE,132,12.0,17.0,79,0.00,,,0.00,VWS V14.01,2013-03-10 00:28:00,
2013-03-09 18:30:00,68.9,63.5,29.64,SE,133,13.0,22.0,83,0.00,,,0.00,VWS V14.01,2013-03-10 00:30:00,
2013-03-09 18:32:00,71.0,64.2,29.65,SE,129,11.0,17.0,79,0.00,,,0.00,VWS V14.01,2013-03-10 00:32:00,
2013-03-09 18:35:00,68.8,63.4,29.63,ESE,123,18.0,23.0,83,0.00,,,0.00,VWS V14.01,2013-03-10 00:35:00,
2013-03-09 18:37:00,70.8,64.0,29.65,ESE,123,12.0,22.0,79,0.00,,,0.00,VWS V14.01,2013-03-10 00:37:00,
2013-03-09 18:40:00,68.8,63.4,29.65,SE,135,13.0,21.0,83,0.00,,,0.00,VWS V14.01,2013-03-10 00:40:00,
2013-03-09 18:42:00,70.5,63.7,29.65,SE,130,11.0,19.0,79,0.00,,,0.00,VWS V14.01,2013-03-10 00:42:00,
2013-03-09 18:45:00,68.7,63.3,29.62,SSE,151,10.0,17.0,83,0.00,,,0.00,VWS V14.01,2013-03-10 00:45:00,
2013-03-09 18:47:00,70.2,63.8,29.65,ESE,112,12.0,17.0,80,0.00,,,0.00,VWS V14.01,2013-03-10 00:47:00,
2013-03-09 18:50:00,68.6,63.2,29.64,SE,139,7.0,21.0,83,0.00,,,0.00,VWS V14.01,2013-03-10 00:50:00,
2013-03-09 18:52:00,70.0,63.5,29.65,SSE,164,12.0,19.0,80,0.00,,,0.00,VWS V14.01,2013-03-10 00:52:00,
2013-03-09 18:55:00,68.6,63.2,29.60,SE,125,19.0,19.0,83,0.00,,,0.00,VWS V14.01,2013-03-10 00:55:00,
2013-03-09 18:57:00,69.9,63.5,29.64,SE,146,11.0,24.0,80,0.00,,,0.00,VWS V14.01,2013-03-10 00:57:00,
2013-03-09 19:00:00,68.5,63.1,29.60,ESE,112,12.0,22.0,83,0.00,,,0.00,VWS V14.01,2013-03-10 01:00:00,
2013-03-09 19:02:00,69.7,63.6,29.64,SSE,151,10.0,18.0,81,0.00,,,0.00,VWS V14.01,2013-03-10 01:02:00,
2013-03-09 19:05:00,68.6,63.2,29.62,SE,146,13.0,19.0,83,0.00,,,0.00,VWS V14.01,2013-03-10 01:05:00,
2013-03-09 19:07:00,69.6,63.5,29.64,ESE,118,8.0,14.0,81,0.00,,,0.00,VWS V14.01,2013-03-10 01:07:00,
2013-03-09 19:10:00,68.7,63.3,29.62,SSE,147,10.0,20.0,83,0.00,,,0.00,VWS V14.01,2013-03-10 01:10:00,
2013-03-09 19:12:00,69.4,63.3,29.65,SE,133,13.0,16.0,81,0.00,,,0.00,VWS V14.01,2013-03-10 01:12:00,
2013-03-09 19:15:00,68.7,63.3,29.63,SE,137,12.0,15.0,83,0.00,,,0.00,VWS V14.01,2013-03-10 01:15:00,
2013-03-09 19:17:00,69.3,63.6,29.64,SE,139,15.0,21.0,82,0.00,,,0.00,VWS V14.01,2013-03-10 01:17:00,
2013-03-09 19:20:00,68.7,63.3,29.63,SSE,154,9.0,15.0,83,0.00,,,0.00,VWS V14.01,2013-03-10 01:20:00,
2013-03-09 19:22:00,69.1,63.4,29.64,SSE,153,13.0,17.0,82,0.00,,,0.00,VWS V14.01,2013-03-10 01:22:00,
2013-03-09 19:25:00,68.7,63.3,29.62,ESE,122,12.0,17.0,83,0.00,,,0.00,VWS V14.01,2013-03-10 01:25:00,
2013-03-09 19:27:00,69.0,63.6,29.64,SSE,160,13.0,18.0,83,0.00,,,0.00,VWS V14.01,2013-03-10 01:27:00,
2013-03-09 19:30:00,68.6,63.2,29.62,SE,142,11.0,20.0,83,0.00,,,0.00,VWS V14.01,2013-03-10 01:30:00,
2013-03-09 19:32:00,68.9,63.5,29.62,ESE,120,18.0,23.0,83,0.00,,,0.00,VWS V14.01,2013-03-10 01:32:00,
2013-03-09 19:35:00,68.6,63.2,29.62,SE,130,13.0,16.0,83,0.00,,,0.00,VWS V14.01,2013-03-10 01:35:00,
2013-03-09 19:37:00,68.8,63.4,29.65,SE,140,15.0,18.0,83,0.00,,,0.00,VWS V14.01,2013-03-10 01:37:00,
2013-03-09 19:40:00,68.5,63.1,29.61,ESE,117,10.0,18.0,83,0.00,,,0.00,VWS V14.01,2013-03-10 01:40:00,
2013-03-09 19:42:00,68.8,63.4,29.64,ESE,108,11.0,17.0,83,0.00,,,0.00,VWS V14.01,2013-03-10 01:42:00,
2013-03-09 19:45:00,68.4,63.4,29.62,SE,135,13.0,16.0,84,0.00,,,0.00,VWS V14.01,2013-03-10 01:45:00,
2013-03-09 19:47:00,68.6,63.2,29.62,SE,133,18.0,21.0,83,0.00,,,0.00,VWS V14.01,2013-03-10 01:47:00,
2013-03-09 19:50:00,68.4,63.4,29.63,SE,133,7.0,15.0,84,0.00,,,0.00,VWS V14.01,2013-03-10 01:50:00,
2013-03-09 19:52:00,68.6,63.2,29.61,SE,129,14.0,14.0,83,0.00,,,0.00,VWS V14.01,2013-03-10 01:52:00,
2013-03-09 19:55:00,68.3,63.3,29.62,SE,133,13.0,19.0,84,0.00,,,0.00,VWS V14.01,2013-03-10 01:55:00,
2013-03-09 19:57:00,68.6,63.2,29.60,ESE,113,13.0,22.0,83,0.00,,,0.00,VWS V14.01,2013-03-10 01:57:00,
2013-03-09 20:00:00,68.2,63.2,29.62,SE,124,6.0,15.0,84,0.00,,,0.00,VWS V14.01,2013-03-10 02:00:00,
2013-03-09 20:02:00,68.5,63.1,29.60,South,171,11.0,14.0,83,0.00,,,0.00,VWS V14.01,2013-03-10 02:02:00,
2013-03-09 20:05:00,68.2,63.2,29.63,ESE,112,7.0,15.0,84,0.00,,,0.00,VWS V14.01,2013-03-10 02:05:00,
2013-03-09 20:07:00,68.6,63.2,29.64,SSE,157,9.0,15.0,83,0.00,,,0.00,VWS V14.01,2013-03-10 02:07:00,
2013-03-09 20:10:00,68.1,63.1,29.62,SE,129,17.0,19.0,84,0.00,,,0.00,VWS V14.01,2013-03-10 02:10:00,
2013-03-09 20:12:00,68.7,63.3,29.62,SE,144,15.0,15.0,83,0.00,,,0.00,VWS V14.01,2013-03-10 02:12:00,
2013-03-09 20:15:00,68.1,63.1,29.63,SSE,149,8.0,20.0,84,0.00,,,0.00,VWS V14.01,2013-03-10 02:15:00,
2013-03-09 20:17:00,68.7,63.3,29.63,SE,132,13.0,13.0,83,0.00,,,0.00,VWS V14.01,2013-03-10 02:17:00,
2013-03-09 20:20:00,68.1,63.1,29.65,SE,144,10.0,18.0,84,0.00,,,0.00,VWS V14.01,2013-03-10 02:20:00,
2013-03-09 20:22:00,68.7,63.3,29.63,SE,142,15.0,15.0,83,0.00,,,0.00,VWS V14.01,2013-03-10 02:22:00,
2013-03-09 20:25:00,68.1,63.1,29.66,South,177,6.0,17.0,84,0.00,,,0.00,VWS V14.01,2013-03-10 02:25:00,
2013-03-09 20:27:00,68.7,63.3,29.62,SE,137,13.0,20.0,83,0.00,,,0.00,VWS V14.01,2013-03-10 02:27:00,
2013-03-09 20:30:00,68.0,63.0,29.64,SE,132,13.0,19.0,84,0.00,,,0.00,VWS V14.01,2013-03-10 02:30:00,
2013-03-09 20:32:00,68.6,63.2,29.62,SE,125,11.0,16.0,83,0.00,,,0.00,VWS V14.01,2013-03-10 02:32:00,
2013-03-09 20:35:00,67.9,62.9,29.65,SE,137,16.0,18.0,84,0.00,,,0.00,VWS V14.01,2013-03-10 02:35:00,
2013-03-09 20:37:00,68.6,63.2,29.62,ESE,118,8.0,18.0,83,0.00,,,0.00,VWS V14.01,2013-03-10 02:37:00,
2013-03-09 20:40:00,67.8,63.1,29.64,SSE,161,14.0,16.0,85,0.00,,,0.00,VWS V14.01,2013-03-10 02:40:00,
2013-03-09 20:42:00,68.5,63.1,29.61,SE,137,13.0,16.0,83,0.00,,,0.00,VWS V14.01,2013-03-10 02:42:00,
2013-03-09 20:45:00,67.8,62.8,29.63,SSE,149,14.0,20.0,84,0.00,,,0.00,VWS V14.01,2013-03-10 02:45:00,
2013-03-09 20:47:00,68.4,63.4,29.62,SSE,149,10.0,14.0,84,0.00,,,0.00,VWS V14.01,2013-03-10 02:47:00,
2013-03-09 20:50:00,67.7,63.0,29.63,SE,144,11.0,17.0,85,0.00,,,0.00,VWS V14.01,2013-03-10 02:50:00,
2013-03-09 20:52:00,68.4,63.4,29.62,SE,135,15.0,17.0,84,0.00,,,0.00,VWS V14.01,2013-03-10 02:52:00,
2013-03-09 20:55:00,67.5,62.8,29.63,SE,137,13.0,23.0,85,0.00,,,0.00,VWS V14.01,2013-03-10 02:55:00,
2013-03-09 20:57:00,68.3,63.3,29.61,SE,125,12.0,15.0,84,0.00,,,0.00,VWS V14.01,2013-03-10 02:57:00,
2013-03-09 21:00:00,67.5,62.8,29.64,SSE,161,8.0,18.0,85,0.00,,,0.00,VWS V14.01,2013-03-10 03:00:00,
2013-03-09 21:02:00,68.2,63.2,29.63,SE,133,11.0,14.0,84,0.00,,,0.00,VWS V14.01,2013-03-10 03:02:00,
2013-03-09 21:05:00,67.4,62.7,29.64,SE,132,9.0,16.0,85,0.00,,,0.00,VWS V14.01,2013-03-10 03:05:00,
2013-03-09 21:07:00,68.2,63.2,29.64,East,101,9.0,15.0,84,0.00,,,0.00,VWS V14.01,2013-03-10 03:07:00,
2013-03-09 21:10:00,67.3,63.0,29.65,SSE,160,11.0,16.0,86,0.00,,,0.00,VWS V14.01,2013-03-10 03:10:00,
2013-03-09 21:12:00,68.1,63.1,29.62,SE,127,12.0,20.0,84,0.00,,,0.00,VWS V14.01,2013-03-10 03:12:00,
2013-03-09 21:15:00,67.3,63.0,29.66,SSE,164,6.0,16.0,86,0.00,,,0.00,VWS V14.01,2013-03-10 03:15:00,
2013-03-09 21:17:00,68.1,63.1,29.64,ESE,119,18.0,18.0,84,0.00,,,0.00,VWS V14.01,2013-03-10 03:17:00,
2013-03-09 21:20:00,67.3,62.6,29.64,SSE,158,13.0,18.0,85,0.00,,,0.00,VWS V14.01,2013-03-10 03:20:00,
2013-03-09 21:22:00,68.1,63.1,29.66,SE,135,9.0,16.0,84,0.00,,,0.00,VWS V14.01,2013-03-10 03:22:00,
2013-03-09 21:25:00,67.3,63.0,29.66,SE,136,9.0,16.0,86,0.00,,,0.00,VWS V14.01,2013-03-10 03:25:00,
2013-03-09 21:27:00,68.1,63.1,29.65,ESE,122,9.0,19.0,84,0.00,,,0.00,VWS V14.01,2013-03-10 03:27:00,
2013-03-09 21:30:00,67.1,62.8,29.65,SSE,158,11.0,20.0,86,0.00,,,0.00,VWS V14.01,2013-03-10 03:30:00,
2013-03-09 21:32:00,68.0,63.0,29.64,SE,139,12.0,16.0,84,0.00,,,0.00,VWS V14.01,2013-03-10 03:32:00,
2013-03-09 21:35:00,66.8,62.8,29.65,SE,133,12.0,17.0,87,0.00,,,0.00,VWS V14.01,2013-03-10 03:35:00,
2013-03-09 21:37:00,67.9,62.9,29.63,East,99,10.0,16.0,84,0.00,,,0.00,VWS V14.01,2013-03-10 03:37:00,
2013-03-09 21:40:00,66.6,62.6,29.66,SW,224,4.0,13.0,87,0.00,,,0.00,VWS V14.01,2013-03-10 03:40:00,
2013-03-09 21:42:00,67.9,62.9,29.65,SSE,166,12.0,20.0,84,0.00,,,0.00,VWS V14.01,2013-03-10 03:42:00,
2013-03-09 21:45:00,66.5,62.5,29.68,SSE,165,6.0,9.0,87,0.00,,,0.00,VWS V14.01,2013-03-10 03:45:00,
2013-03-09 21:47:00,67.7,63.0,29.62,SE,132,15.0,17.0,85,0.00,,,0.00,VWS V14.01,2013-03-10 03:47:00,
2013-03-09 21:50:00,66.5,62.5,29.69,WSW,247,2.0,11.0,87,0.00,,,0.00,VWS V14.01,2013-03-10 03:50:00,
2013-03-09 21:52:00,67.6,62.9,29.61,SE,130,20.0,23.0,85,0.00,,,0.00,VWS V14.01,2013-03-10 03:52:00,
2013-03-09 21:55:00,66.5,62.8,29.71,SW,224,3.0,7.0,88,0.00,,,0.00,VWS V14.01,2013-03-10 03:55:00,
2013-03-09 21:57:00,67.5,62.8,29.63,SE,135,8.0,18.0,85,0.00,,,0.00,VWS V14.01,2013-03-10 03:57:00,
2013-03-09 22:00:00,66.1,61.8,29.71,North,355,4.0,15.0,86,0.01,,,0.01,VWS V14.01,2013-03-10 04:00:00,
2013-03-09 22:02:00,67.4,62.7,29.63,SE,136,13.0,16.0,85,0.00,,,0.00,VWS V14.01,2013-03-10 04:02:00,
2013-03-09 22:05:00,64.6,60.3,29.70,North,354,10.0,12.0,86,0.16,,,0.16,VWS V14.01,2013-03-10 04:05:00,
2013-03-09 22:07:00,67.3,63.0,29.64,SE,133,9.0,12.0,86,0.00,,,0.00,VWS V14.01,2013-03-10 04:07:00,
2013-03-09 22:10:00,63.2,59.6,29.70,North,355,7.0,16.0,88,0.22,,,0.22,VWS V14.01,2013-03-10 04:10:00,
2013-03-09 22:12:00,67.3,63.0,29.66,SSE,154,8.0,14.0,86,0.00,,,0.00,VWS V14.01,2013-03-10 04:12:00,
2013-03-09 22:15:00,62.6,59.3,29.69,North,355,9.0,13.0,89,0.24,,,0.24,VWS V14.01,2013-03-10 04:15:00,
2013-03-09 22:17:00,67.3,63.0,29.65,ESE,115,10.0,17.0,86,0.00,,,0.00,VWS V14.01,2013-03-10 04:17:00,
2013-03-09 22:20:00,62.4,59.4,29.70,North,2,5.0,9.0,90,0.25,,,0.25,VWS V14.01,2013-03-10 04:20:00,
2013-03-09 22:22:00,67.3,63.0,29.66,SE,144,8.0,13.0,86,0.00,,,0.00,VWS V14.01,2013-03-10 04:22:00,
2013-03-09 22:25:00,62.3,59.3,29.73,SSW,193,3.0,6.0,90,0.34,,,0.34,VWS V14.01,2013-03-10 04:25:00,
2013-03-09 22:27:00,67.3,63.0,29.64,SSE,147,10.0,18.0,86,0.00,,,0.00,VWS V14.01,2013-03-10 04:27:00,
2013-03-09 22:30:00,62.1,59.1,29.74,WNW,285,2.0,5.0,90,0.58,,,0.58,VWS V14.01,2013-03-10 04:30:00,
2013-03-09 22:32:00,66.9,62.6,29.63,East,97,12.0,15.0,86,0.00,,,0.00,VWS V14.01,2013-03-10 04:32:00,
2013-03-09 22:35:00,61.9,58.9,29.74,South,172,2.0,6.0,90,0.64,,,0.64,VWS V14.01,2013-03-10 04:35:00,
2013-03-09 22:37:00,66.7,62.7,29.66,SE,125,7.0,13.0,87,0.00,,,0.00,VWS V14.01,2013-03-10 04:37:00,
2013-03-09 22:40:00,61.8,59.2,29.73,NNE,19,2.0,4.0,91,0.67,,,0.67,VWS V14.01,2013-03-10 04:40:00,
2013-03-09 22:42:00,66.6,62.6,29.67,SSE,159,6.0,9.0,87,0.00,,,0.00,VWS V14.01,2013-03-10 04:42:00,
2013-03-09 22:45:00,61.7,59.0,29.71,NE,37,4.0,4.0,91,0.68,,,0.68,VWS V14.01,2013-03-10 04:45:00,
2013-03-09 22:47:00,66.5,62.5,29.68,SSE,163,8.0,10.0,87,0.00,,,0.00,VWS V14.01,2013-03-10 04:47:00,
2013-03-09 22:50:00,61.6,59.0,29.69,NNE,19,6.0,7.0,91,0.68,,,0.68,VWS V14.01,2013-03-10 04:50:00,
2013-03-09 22:52:00,66.5,62.5,29.70,SW,227,3.0,3.0,87,0.00,,,0.00,VWS V14.01,2013-03-10 04:52:00,
2013-03-09 22:55:00,61.6,59.0,29.70,North,359,5.0,8.0,91,0.68,,,0.68,VWS V14.01,2013-03-10 04:55:00,
2013-03-09 22:57:00,66.4,62.7,29.71,West,280,4.0,5.0,88,0.00,,,0.00,VWS V14.01,2013-03-10 04:57:00,
2013-03-09 23:00:00,66.2,61.9,29.72,NNW,329,7.0,15.0,86,0.01,,,0.01,VWS V14.01,2013-03-10 05:00:00,
2013-03-09 23:05:00,64.5,60.2,29.70,North,353,10.0,11.0,86,0.16,,,0.16,VWS V14.01,2013-03-10 05:05:00,
2013-03-09 23:10:00,63.2,59.6,29.70,North,355,8.0,8.0,88,0.22,,,0.22,VWS V14.01,2013-03-10 05:10:00,
2013-03-09 23:15:00,62.6,59.3,29.69,NNW,346,8.0,9.0,89,0.24,,,0.24,VWS V14.01,2013-03-10 05:15:00,
2013-03-09 23:20:00,62.4,59.4,29.70,North,1,5.0,5.0,90,0.25,,,0.25,VWS V14.01,2013-03-10 05:20:00,
2013-03-09 23:25:00,62.3,59.3,29.73,WNW,292,2.0,3.0,90,0.34,,,0.34,VWS V14.01,2013-03-10 05:25:00,
2013-03-09 23:30:00,62.1,59.1,29.74,SSW,207,2.0,2.0,90,0.58,,,0.58,VWS V14.01,2013-03-10 05:30:00,
2013-03-09 23:35:00,61.9,58.9,29.74,South,181,3.0,3.0,90,0.64,,,0.64,VWS V14.01,2013-03-10 05:35:00,
2013-03-09 23:40:00,61.8,59.2,29.73,NNE,19,2.0,2.0,91,0.67,,,0.67,VWS V14.01,2013-03-10 05:40:00,
2013-03-09 23:45:00,61.7,59.0,29.71,NE,37,4.0,4.0,91,0.68,,,0.68,VWS V14.01,2013-03-10 05:45:00,
2013-03-09 23:50:00,61.6,59.0,29.69,NNE,19,6.0,7.0,91,0.68,,,0.68,VWS V14.01,2013-03-10 05:50:00,
2013-03-09 23:55:00,61.6,59.0,29.70,North,359,5.0,8.0,91,0.68,,,0.68,VWS V14.01,2013-03-10 05:55:00,